Location: Batang Balui
(2.7000°N, 113.7833°E)
Time: 23:33:28
(UTC+00:00)

H-2A R/B - Pass Details

Date: 03 December 2021
Orbit: 734 x 836 km, 98.2° (Epoch: 27 January)

Event Time Altitude Azimuth Distance (km) Brightness Sun altitude
Rises 11:32:12 0° 190° (S) 3,367 5.8 -18.9°
Reaches altitude 10° 11:34:55 10° 203° (SSW) 2,423 5.2 -19.6°
Maximum altitude 11:39:19 26° 258° (WSW) 1,552 4.3 -20.6°
Drops below altitude 10° 11:43:38 10° 313° (NW) 2,371 4.8 -21.6°
Sets 11:46:17 0° 326° (NW) 3,282 5.4 -22.2°
